Beaufort MCAS, SC

12:03 PM EDT on May 24, 2017 (GMT -0400)
Beaufort Marine Corps Air Station

Weather History for KNBC - January, 2011

Change the Weather History Date:

Sunday, January 16, 2011

  Actual Average Record
Temperature  
Mean Temperature 44 °F -  
Max Temperature 61 °F 58 °F 86 °F (1950)
Min Temperature 28 °F 36 °F 21 °F (1948)
Degree Days  
Heating Degree Days 20    
Moisture  
Dew Point 29 °F    
Average Humidity 61    
Maximum Humidity 82    
Minimum Humidity 33    
Precipitation  
Precipitation 0.00 in - - ()
Sea Level Pressure  
Sea Level Pressure 30.14 in    
Wind  
Wind Speed 2 mph (SSW)    
Max Wind Speed 8 mph    
Max Gust Speed -    
Visibility 10 miles    
Events      
Averages and records for this station are not official NWS values.
T = Trace of Precipitation, MM = Missing Value Source: NWS Daily Summary

Daily Weather History Graph

Daily Weather History Graph

Search for Another Location

Airport or City:

Trip Planner

Search our weather history database for the weather conditions in past years. The results will help you decide how hot, cold, wet, or windy it might be!

Date:

Astronomy

Jan. 16, 2011 Rise Set
Actual Time 7:24 AM EST 5:40 PM EST
Civil Twilight 6:58 AM EST 6:07 PM EST
Nautical Twilight 6:27 AM EST 6:37 PM EST
Astronomical Twilight 5:58 AM EST 7:07 PM EST
Moon 2:34 PM EST (1/16) 4:22 AM EST (1/16)
Length of Visible Light 11h 09m
Length of Day
10h 16m
Waxing Gibbous, 88% of the Moon is Illuminated
Jan 16
Waxing Gibbous
Jan 19
Full
Jan 26
Last Quarter
Feb 2
New
Feb 11
First Quarter

Hourly Weather History & Observations

Time (EST) Temp. Windchill Dew Point Humidity Pressure Visibility Wind Dir Wind Speed Gust Speed Precip Events Conditions
12:56 AM 32.0 °F 28.7 °F 26.1 °F 79% 30.17 in 10.0 mi SSE 3.5 mph - N/A   Clear
1:56 AM 32.0 °F - 25.0 °F 75% 30.16 in 10.0 mi Calm Calm - N/A   Clear
2:56 AM 30.9 °F - 24.1 °F 76% 30.17 in 10.0 mi Calm Calm - N/A   Clear
3:56 AM 28.9 °F - 21.9 °F 75% 30.16 in 10.0 mi Calm Calm - N/A   Clear
4:56 AM 32.0 °F - 24.1 °F 73% 30.14 in 10.0 mi Calm Calm - N/A   Clear
5:56 AM 28.9 °F - 21.9 °F 75% 30.15 in 10.0 mi Calm Calm - N/A   Clear
6:56 AM 30.0 °F 26.5 °F 23.0 °F 75% 30.16 in 10.0 mi WSW 3.5 mph - N/A   Clear
7:56 AM 30.0 °F - 23.0 °F 75% 30.17 in 10.0 mi Calm Calm - N/A   Clear
8:56 AM 41.0 °F - 27.0 °F 57% 30.19 in 10.0 mi Calm Calm - N/A   Clear
9:56 AM 48.9 °F - 28.0 °F 44% 30.20 in 10.0 mi West 4.6 mph - N/A   Clear
10:56 AM 54.0 °F - 26.1 °F 34% 30.19 in 10.0 mi WSW 8.1 mph - N/A   Clear
11:56 AM 55.9 °F - 28.9 °F 36% 30.14 in 10.0 mi SW 5.8 mph - N/A   Clear
12:56 PM 59.0 °F - 30.0 °F 33% 30.11 in 10.0 mi SSW 5.8 mph - N/A   Clear
1:56 PM 60.1 °F - 30.9 °F 33% 30.08 in 10.0 mi Variable 3.5 mph - N/A   Clear
2:56 PM 61.0 °F - 33.1 °F 35% 30.07 in 10.0 mi SSE 5.8 mph - N/A   Clear
3:56 PM 57.9 °F - 34.0 °F 41% 30.08 in 10.0 mi SSE 6.9 mph - N/A   Clear
4:56 PM 54.0 °F - 33.1 °F 45% 30.09 in 10.0 mi SSE 8.1 mph - N/A   Clear
5:56 PM 48.9 °F - 34.0 °F 56% 30.10 in 10.0 mi South 3.5 mph - N/A   Clear
6:56 PM 46.9 °F - 36.0 °F 66% 30.12 in 10.0 mi Calm Calm - N/A   Clear
7:56 PM 44.1 °F - 36.0 °F 73% 30.13 in 10.0 mi Calm Calm - N/A   Clear
8:56 PM 42.1 °F - 34.0 °F 73% 30.14 in 10.0 mi Calm Calm - N/A   Clear
9:56 PM 37.0 °F - 32.0 °F 82% 30.13 in 10.0 mi Calm Calm - N/A   Clear
10:56 PM 37.0 °F - 30.9 °F 79% 30.12 in 10.0 mi Calm Calm - N/A   Clear
11:56 PM 37.0 °F - 30.9 °F 79% 30.11 in 10.0 mi Calm Calm - N/A   Clear